This is the latest recevied weather packets stored in our database for station/object PY5AL-13. If no packets are shown the sender has not sent any weather packets the latest 10 day(s).
| Time | Temp. | Humidity | Pressure | Rain* | Wind** | Luminosity | Snow |
|---|---|---|---|---|---|---|---|
| 1788337634 | 22.78° C | 62% | 1019.3 hPa | - | - | - | - |
| 1788336434 | 22.78° C | 62% | 1019 hPa | - | - | - | - |
| 1788335234 | 22.78° C | 62% | 1018.9 hPa | - | - | - | - |
| 1788334034 | 22.78° C | 62% | 1019 hPa | - | - | - | - |
| 1788332834 | 22.78° C | 62% | 1018.9 hPa | - | - | - | - |
| 1788331634 | 22.78° C | 61% | 1018.9 hPa | - | - | - | - |
| 1788330434 | 22.78° C | 59% | 1019.1 hPa | - | - | - | - |
| 1788329234 | 22.78° C | 61% | 1019.2 hPa | - | - | - | - |
| 1788328034 | 22.78° C | 61% | 1019.2 hPa | - | - | - | - |
| 1788326834 | 22.78° C | 61% | 1019.3 hPa | - | - | - | - |
| 1788320834 | 23.33° C | 60% | 1019.3 hPa | - | - | - | - |
| 1788301635 | 23.89° C | 61% | 1015.5 hPa | - | - | - | - |
| 1788299235 | 23.89° C | 61% | 1015.2 hPa | - | - | - | - |
| 1788298035 | 23.89° C | 61% | 1014.8 hPa | - | - | - | - |
| 1788296835 | 23.89° C | 61% | 1014.2 hPa | - | - | - | - |
| 1788294435 | 23.89° C | 66% | 1013.6 hPa | - | - | - | - |
| 1788293235 | 23.89° C | 66% | 1013.3 hPa | - | - | - | - |
| 1788290835 | 23.89° C | 67% | 1012.2 hPa | - | - | - | - |
| 1788289635 | 23.89° C | 68% | 1012 hPa | - | - | - | - |
| 1788287235 | 23.89° C | 70% | 1011.7 hPa | - | - | - | - |
| 1788286035 | 23.89° C | 71% | 1011.5 hPa | - | - | - | - |
| 1788283635 | 23.33° C | 75% | 1011.5 hPa | - | - | - | - |
| 1788282436 | 23.33° C | 76% | 1011.5 hPa | - | - | - | - |
| 1788281236 | 23.33° C | 77% | 1011.8 hPa | - | - | - | - |
| 1788280036 | 22.78° C | 78% | 1012 hPa | - | - | - | - |
* Rain since midnight (hover to see other rain measurements)
** Current wind speed in m/s (hover to see current wind gust speed)